Change the Weather History Date:

Monday, April 1, 2013

  Actual Average Record
Temperature  
Mean Temperature 30 °F -  
Max Temperature 43 °F 38 °F 50 °F (1993)
Min Temperature 16 °F 16 °F -16 °F (1986)
Degree Days  
Heating Degree Days 36    
Moisture  
Dew Point 16 °F    
Average Humidity 60    
Maximum Humidity 92    
Minimum Humidity 22    
Precipitation  
Precipitation 0.00 in - - ()
Sea Level Pressure  
Sea Level Pressure 30.01 in    
Wind  
Wind Speed 2 mph (North)    
Max Wind Speed 8 mph    
Max Gust Speed 16 mph    
Visibility 10 miles    
Events      
Averages and records for this station are not official NWS values.
T = Trace of Precipitation, MM = Missing Value Source: NWS Daily Summary

Daily Weather History Graph

Daily Weather History Graph

Search for Another Location

Airport or City:

Trip Planner

Search our weather history database for the weather conditions in past years. The results will help you decide how hot, cold, wet, or windy it might be!

Date:

Astronomy

Apr. 01, 2013 Rise Set
Actual Time 7:20 AM AKDT 8:49 PM AKDT
Civil Twilight 6:33 AM AKDT 9:36 PM AKDT
Nautical Twilight 5:34 AM AKDT 10:36 PM AKDT
Astronomical Twilight 4:21 AM AKDT 11:50 PM AKDT
Moon 3:35 AM AKDT (4/1) 9:49 AM AKDT (4/1)
Length of Visible Light 15h 02m
Length of Day
13h 29m
Waning Gibbous, 65% of the Moon is Illuminated
Apr 1
Waning Gibbous
Apr 2
Last Quarter
Apr 10
New
Apr 18
First Quarter
Apr 25
Full

Hourly Weather History & Observations

Time (AKDT) Temp. Windchill Dew Point Humidity Pressure Visibility Wind Dir Wind Speed Gust Speed Precip Events Conditions
12:53 AM 23.0 °F - 19.9 °F 88% 30.12 in 10.0 mi Calm Calm - N/A   Partly Cloudy
1:53 AM 21.0 °F - 18.0 °F 88% 30.10 in 10.0 mi Calm Calm - N/A   Clear
2:53 AM 21.9 °F - 18.0 °F 85% 30.09 in 10.0 mi Calm Calm - N/A   Mostly Cloudy
3:53 AM 19.0 °F - 17.1 °F 92% 30.09 in 10.0 mi Calm Calm - N/A   Clear
4:53 AM 18.0 °F - 15.1 °F 88% 30.08 in 10.0 mi Calm Calm - N/A   Clear
5:53 AM 18.0 °F - 14.0 °F 84% 30.07 in 10.0 mi Calm Calm - N/A   Partly Cloudy
6:53 AM 17.1 °F - 14.0 °F 88% 30.06 in 10.0 mi Calm Calm - N/A   Scattered Clouds
7:53 AM 16.0 °F - 12.9 °F 88% 30.04 in 10.0 mi Calm Calm - N/A   Partly Cloudy
8:53 AM 24.1 °F - 14.0 °F 65% 30.03 in 10.0 mi Calm Calm - N/A   Partly Cloudy
9:53 AM 27.0 °F 21.6 °F 15.1 °F 61% 30.02 in 10.0 mi NNW 4.6 mph - N/A   Overcast
10:53 AM 32.0 °F 28.7 °F 16.0 °F 52% 30.01 in 10.0 mi North 3.5 mph - N/A   Mostly Cloudy
11:53 AM 32.0 °F 26.4 °F 17.1 °F 54% 30.00 in 10.0 mi West 5.8 mph - N/A   Mostly Cloudy
12:53 PM 36.0 °F 32.1 °F 16.0 °F 44% 29.99 in 10.0 mi NW 4.6 mph - N/A   Scattered Clouds
1:53 PM 37.9 °F - 17.1 °F 43% 29.97 in 10.0 mi Calm Calm - N/A   Clear
2:53 PM 42.1 °F 37.7 °F 17.1 °F 37% 29.96 in 10.0 mi NNE 6.9 mph - N/A   Clear
3:53 PM 42.1 °F 37.1 °F 16.0 °F 35% 29.95 in 10.0 mi NNE 8.1 mph - N/A   Clear
4:53 PM 42.1 °F 37.7 °F 16.0 °F 35% 29.95 in 10.0 mi North 6.9 mph 16.1 mph N/A   Clear
5:53 PM 42.1 °F 37.7 °F 16.0 °F 35% 29.95 in 10.0 mi Variable 6.9 mph - N/A   Clear
6:53 PM 42.1 °F 37.7 °F 17.1 °F 37% 29.95 in 10.0 mi North 6.9 mph - N/A   Clear
7:53 PM 39.9 °F 35.8 °F 16.0 °F 38% 29.95 in 10.0 mi North 5.8 mph - N/A   Clear
8:53 PM 37.0 °F - 17.1 °F 44% 29.96 in 10.0 mi Calm Calm - N/A   Clear
9:53 PM 33.1 °F - 17.1 °F 52% 29.98 in 10.0 mi Calm Calm - N/A   Clear
10:53 PM 25.0 °F - 16.0 °F 69% 29.99 in 10.0 mi Calm Calm - N/A   Clear
11:53 PM 27.0 °F - 16.0 °F 63% 30.01 in 10.0 mi Calm Calm - N/A   Clear